Time,TemperatureF,DewpointF,PressureIn,WindDirection,WindDirectionDegrees,WindSpeedMPH,WindSpeedGustMPH,Humidity,HourlyPrecipIn,Conditions,Clouds,dailyrainin,SolarRadiationWatts/m^2,SoftwareType,DateUTC
2013-03-19 10:15:00,25.8,24.6,29.85,East,90,8.1,8.1,95,0.00,CLR,,0.00,83.0,WeatherDisplay:10.37,2013-03-19 14:15:00,
2013-03-19 10:16:00,25.8,24.6,29.85,East,94,8.1,8.1,95,0.00,CLR,,0.00,83.0,WeatherDisplay:10.37,2013-03-19 14:16:00,
2013-03-19 10:19:00,25.8,24.8,29.85,East,95,8.1,8.1,96,0.00,CLR,,0.00,70.0,WeatherDisplay:10.37,2013-03-19 14:19:00,
2013-03-19 10:24:00,25.9,24.9,29.84,East,83,6.0,6.0,96,0.00,CLR,,0.00,72.0,WeatherDisplay:10.37,2013-03-19 14:24:00,
2013-03-19 10:29:00,25.9,24.9,29.83,East,89,9.2,9.2,96,0.00,CLR,,0.00,74.0,WeatherDisplay:10.37,2013-03-19 14:29:00,
2013-03-19 10:34:00,25.9,24.9,29.82,ESE,107,8.1,8.6,96,0.00,BKN,,0.00,72.0,WeatherDisplay:10.37,2013-03-19 14:34:00,
2013-03-19 10:39:00,26.0,25.0,29.82,ENE,74,9.2,9.2,96,0.00,BKN,,0.00,74.0,WeatherDisplay:10.37,2013-03-19 14:39:00,
2013-03-19 10:45:00,26.1,24.9,29.81,SE,130,10.4,10.4,95,0.00,BKN,,0.00,74.0,WeatherDisplay:10.37,2013-03-19 14:45:00,
2013-03-19 10:50:00,26.1,25.1,29.81,East,101,6.0,6.0,96,0.00,BKN,,0.00,83.0,WeatherDisplay:10.37,2013-03-19 14:50:00,
2013-03-19 10:55:00,26.2,25.2,29.81,East,92,8.1,8.1,96,0.00,BKN,,0.00,98.0,WeatherDisplay:10.37,2013-03-19 14:55:00,
2013-03-19 11:00:00,26.3,25.3,29.80,East,86,6.9,6.9,96,0.00,BKN,,0.00,146.0,WeatherDisplay:10.37,2013-03-19 15:00:00,
2013-03-19 11:05:00,26.4,25.4,29.81,ENE,69,10.4,10.4,96,0.00,BKN,,0.00,162.0,WeatherDisplay:10.37,2013-03-19 15:05:00,
2013-03-19 11:10:00,26.5,25.5,29.81,ENE,78,8.1,8.1,96,0.00,BKN,,0.00,162.0,WeatherDisplay:10.37,2013-03-19 15:10:00,
2013-03-19 11:15:00,26.5,25.5,29.82,ENE,67,11.5,11.5,96,0.00,BKN,,0.00,193.0,WeatherDisplay:10.37,2013-03-19 15:15:00,
2013-03-19 11:20:00,26.6,25.6,29.82,East,101,4.6,4.6,96,0.00,BKN,,0.00,178.0,WeatherDisplay:10.37,2013-03-19 15:20:00,
2013-03-19 11:25:00,26.8,25.8,29.82,East,84,5.8,5.8,96,0.00,BKN,,0.00,171.0,WeatherDisplay:10.37,2013-03-19 15:25:00,
2013-03-19 11:30:00,26.9,25.9,29.82,East,94,3.5,3.5,96,0.00,BKN,,0.00,127.0,WeatherDisplay:10.37,2013-03-19 15:30:00,
2013-03-19 11:35:00,27.0,26.0,29.83,East,85,5.0,5.0,96,0.00,BKN,,0.00,84.0,WeatherDisplay:10.37,2013-03-19 15:35:00,
2013-03-19 11:40:00,27.1,26.1,29.83,East,82,2.0,2.0,96,0.00,BKN,,0.00,76.0,WeatherDisplay:10.37,2013-03-19 15:40:00,
2013-03-19 11:46:00,27.1,26.1,29.83,East,84,3.5,3.5,96,0.00,BKN,,0.00,62.0,WeatherDisplay:10.37,2013-03-19 15:46:00,
2013-03-19 11:51:00,27.1,26.1,29.82,East,89,4.6,4.6,96,0.00,BKN,,0.00,53.0,WeatherDisplay:10.37,2013-03-19 15:51:00,
2013-03-19 11:56:00,27.0,26.0,29.82,East,87,5.0,5.0,96,0.00,BKN,,0.00,39.0,WeatherDisplay:10.37,2013-03-19 15:56:00,
2013-03-19 12:01:00,26.9,25.9,29.82,East,88,5.8,5.8,96,0.00,BKN,,0.00,33.0,WeatherDisplay:10.37,2013-03-19 16:01:00,
2013-03-19 12:06:00,26.9,25.9,29.82,East,96,2.3,2.3,96,0.00,BKN,,0.00,33.0,WeatherDisplay:10.37,2013-03-19 16:06:00,
2013-03-19 12:12:00,26.9,25.9,29.82,East,89,6.9,6.9,96,0.00,BKN,,0.00,39.0,WeatherDisplay:10.37,2013-03-19 16:12:00,
2013-03-19 12:17:00,26.9,25.9,29.81,East,94,6.0,6.0,96,0.00,BKN,,0.00,58.0,WeatherDisplay:10.37,2013-03-19 16:17:00,
2013-03-19 12:22:00,26.8,25.8,29.81,East,93,3.5,3.5,96,0.00,BKN,,0.00,63.0,WeatherDisplay:10.37,2013-03-19 16:22:00,
2013-03-19 12:27:00,26.8,25.8,29.80,East,98,3.5,3.5,96,0.00,BKN,,0.00,69.0,WeatherDisplay:10.37,2013-03-19 16:27:00,
2013-03-19 12:33:00,26.8,25.8,29.80,East,88,4.6,4.6,96,0.00,BKN,,0.00,79.0,WeatherDisplay:10.37,2013-03-19 16:33:00,
2013-03-19 12:38:00,26.8,25.8,29.80,East,81,6.0,6.0,96,0.00,BKN,,0.00,79.0,WeatherDisplay:10.37,2013-03-19 16:38:00,
2013-03-19 12:43:00,26.9,25.9,29.80,ESE,105,7.0,7.0,96,0.00,BKN,,0.00,62.0,WeatherDisplay:10.37,2013-03-19 16:43:00,
2013-03-19 12:48:00,26.9,25.9,29.79,East,90,8.1,8.1,96,0.00,BKN,,0.00,51.0,WeatherDisplay:10.37,2013-03-19 16:48:00,
2013-03-19 12:53:00,26.8,25.8,29.79,ESE,103,4.6,4.6,96,0.00,BKN,,0.00,53.0,WeatherDisplay:10.37,2013-03-19 16:53:00,
2013-03-19 12:58:00,26.9,25.9,29.78,East,98,4.6,4.6,96,0.00,BKN,,0.00,47.0,WeatherDisplay:10.37,2013-03-19 16:58:00,
2013-03-19 13:03:00,26.9,25.9,29.78,East,98,7.0,7.0,96,0.00,BKN,,0.00,40.0,WeatherDisplay:10.37,2013-03-19 17:03:00,
2013-03-19 13:08:00,26.9,25.9,29.79,East,88,4.6,4.6,96,0.00,BKN,,0.00,47.0,WeatherDisplay:10.37,2013-03-19 17:08:00,
2013-03-19 13:13:00,26.9,25.9,29.79,East,88,5.0,5.0,96,0.00,BKN,,0.00,63.0,WeatherDisplay:10.37,2013-03-19 17:13:00,
2013-03-19 13:19:00,27.0,26.0,29.79,ESE,107,8.0,8.0,96,0.00,BKN,,0.00,72.0,WeatherDisplay:10.37,2013-03-19 17:19:00,
2013-03-19 13:24:00,27.1,26.1,29.79,East,83,4.6,4.6,96,0.00,BKN,,0.00,53.0,WeatherDisplay:10.37,2013-03-19 17:24:00,
2013-03-19 13:29:00,27.2,26.2,29.79,East,93,7.0,7.0,96,0.00,BKN,,0.00,56.0,WeatherDisplay:10.37,2013-03-19 17:29:00,
2013-03-19 13:34:00,27.3,26.3,29.79,ENE,76,8.1,8.1,96,0.00,BKN,,0.00,102.0,WeatherDisplay:10.37,2013-03-19 17:34:00,
2013-03-19 13:39:00,27.4,26.4,29.77,East,84,8.1,8.1,96,0.00,BKN,,0.00,125.0,WeatherDisplay:10.37,2013-03-19 17:39:00,
2013-03-19 13:44:00,27.5,26.5,29.76,ESE,106,8.0,8.0,96,0.00,BKN,,0.00,83.0,WeatherDisplay:10.37,2013-03-19 17:44:00,
2013-03-19 13:49:00,27.6,26.6,29.74,East,82,8.1,8.1,96,0.00,BKN,,0.00,65.0,WeatherDisplay:10.37,2013-03-19 17:49:00,
2013-03-19 13:54:00,27.5,26.5,29.74,ESE,111,6.0,6.0,96,0.00,BKN,,0.00,67.0,WeatherDisplay:10.37,2013-03-19 17:54:00,
2013-03-19 13:59:00,27.5,26.5,29.74,ESE,105,6.9,6.9,96,0.00,BKN,,0.00,74.0,WeatherDisplay:10.37,2013-03-19 17:59:00,
2013-03-19 14:04:00,27.6,26.6,29.74,ENE,78,8.0,8.0,96,0.00,BKN,,0.00,79.0,WeatherDisplay:10.37,2013-03-19 18:04:00,
2013-03-19 14:09:00,27.6,26.6,29.74,ESE,123,4.6,4.6,96,0.00,BKN,,0.00,88.0,WeatherDisplay:10.37,2013-03-19 18:09:00,
2013-03-19 14:14:00,27.6,26.6,29.75,ESE,112,5.0,5.0,96,0.00,BKN,,0.00,88.0,WeatherDisplay:10.37,2013-03-19 18:14:00,
2013-03-19 14:26:00,27.8,26.8,29.75,East,84,8.1,8.1,96,8.70,RA,,8.70,98.0,WeatherDisplay:10.37,2013-03-19 18:26:00,
2013-03-19 14:31:00,27.8,26.8,29.72,East,82,9.2,9.2,96,8.70,BKN,,8.70,107.0,WeatherDisplay:10.37,2013-03-19 18:31:00,
2013-03-19 14:37:00,27.9,26.9,29.71,East,90,6.0,6.0,96,8.70,BKN,,8.70,127.0,WeatherDisplay:10.37,2013-03-19 18:37:00,
2013-03-19 14:42:00,28.0,27.0,29.72,East,98,6.9,6.9,96,8.70,BKN,,8.70,146.0,WeatherDisplay:10.37,2013-03-19 18:42:00,
2013-03-19 14:47:00,28.2,27.2,29.71,East,86,6.0,6.0,96,8.70,OVC,,8.70,176.0,WeatherDisplay:10.37,2013-03-19 18:47:00,
2013-03-19 14:52:00,28.4,27.4,29.72,East,84,5.8,5.8,96,8.70,OVC,,8.70,171.0,WeatherDisplay:10.37,2013-03-19 18:52:00,
2013-03-19 14:57:00,28.5,27.5,29.72,East,99,5.0,5.0,96,8.70,OVC,,8.70,137.0,WeatherDisplay:10.37,2013-03-19 18:57:00,
2013-03-19 15:02:00,28.6,27.9,29.71,East,81,7.0,7.0,97,8.70,OVC,,8.70,160.0,WeatherDisplay:10.37,2013-03-19 19:02:00,
2013-03-19 15:07:00,28.7,28.0,29.72,ESE,107,4.6,4.6,97,8.70,OVC,,8.70,155.0,WeatherDisplay:10.37,2013-03-19 19:07:00,
2013-03-19 15:12:00,28.9,27.9,29.71,East,101,6.0,6.0,96,8.70,OVC,,8.70,142.0,WeatherDisplay:10.37,2013-03-19 19:12:00,
2013-03-19 15:17:00,28.9,27.9,29.71,East,88,5.8,5.8,96,8.70,OVC,,8.70,118.0,WeatherDisplay:10.37,2013-03-19 19:17:00,
2013-03-19 15:22:00,28.9,27.9,29.71,East,82,6.0,6.0,96,0.00,OVC,,8.70,118.0,WeatherDisplay:10.37,2013-03-19 19:22:00,
2013-03-19 15:27:00,28.9,27.9,29.71,East,88,5.0,5.0,96,0.00,OVC,,8.70,118.0,WeatherDisplay:10.37,2013-03-19 19:27:00,
2013-03-19 15:32:00,28.9,27.9,29.70,ESE,107,7.0,7.0,96,0.00,OVC,,8.70,111.0,WeatherDisplay:10.37,2013-03-19 19:32:00,
2013-03-19 15:37:00,28.8,27.8,29.70,ESE,103,7.0,7.0,96,0.00,OVC,,8.70,114.0,WeatherDisplay:10.37,2013-03-19 19:37:00,
2013-03-19 15:42:00,28.7,27.7,29.70,East,88,9.0,9.0,96,0.00,OVC,,8.70,98.0,WeatherDisplay:10.37,2013-03-19 19:42:00,
2013-03-19 15:47:00,28.6,27.6,29.69,ESE,113,5.8,5.8,96,0.00,OVC,,8.70,95.0,WeatherDisplay:10.37,2013-03-19 19:47:00,
2013-03-19 15:52:00,28.5,27.5,29.70,East,83,10.4,10.4,96,0.00,OVC,,8.70,97.0,WeatherDisplay:10.37,2013-03-19 19:52:00,
2013-03-19 15:57:00,28.5,27.5,29.70,East,95,6.0,6.0,96,0.00,OVC,,8.70,130.0,WeatherDisplay:10.37,2013-03-19 19:57:00,
2013-03-19 16:02:00,28.6,27.6,29.69,East,96,5.0,5.0,96,0.00,OVC,,8.70,179.0,WeatherDisplay:10.37,2013-03-19 20:02:00,
2013-03-19 16:07:00,28.8,27.8,29.69,SSE,153,9.2,9.2,96,0.00,OVC,,8.70,153.0,WeatherDisplay:10.37,2013-03-19 20:07:00,
2013-03-19 16:13:00,28.9,27.9,29.69,ENE,61,4.6,4.6,96,0.00,OVC,,8.70,128.0,WeatherDisplay:10.37,2013-03-19 20:13:00,
2013-03-19 16:18:00,29.0,28.0,29.69,East,85,5.0,5.0,96,0.00,OVC,,8.70,113.0,WeatherDisplay:10.37,2013-03-19 20:18:00,
2013-03-19 16:23:00,29.0,28.0,29.69,East,84,4.0,4.0,96,0.00,OVC,,8.70,84.0,WeatherDisplay:10.37,2013-03-19 20:23:00,
2013-03-19 16:28:00,29.0,28.0,29.69,East,92,6.9,6.9,96,0.00,OVC,,8.70,65.0,WeatherDisplay:10.37,2013-03-19 20:28:00,
2013-03-19 16:33:00,28.8,27.5,29.69,East,84,5.0,5.0,95,0.00,OVC,,8.70,83.0,WeatherDisplay:10.37,2013-03-19 20:33:00,
2013-03-19 16:38:00,28.6,27.4,29.69,East,80,6.0,6.0,95,0.00,OVC,,8.70,70.0,WeatherDisplay:10.37,2013-03-19 20:38:00,
2013-03-19 16:43:00,28.5,27.5,29.69,East,86,4.6,4.6,96,0.00,OVC,,8.70,60.0,WeatherDisplay:10.37,2013-03-19 20:43:00,
2013-03-19 16:48:00,28.4,27.4,29.69,East,94,2.3,2.3,96,0.00,OVC,,8.70,46.0,WeatherDisplay:10.37,2013-03-19 20:48:00,
2013-03-19 16:53:00,28.4,27.2,29.69,East,90,3.5,3.5,95,0.00,OVC,,8.70,58.0,WeatherDisplay:10.37,2013-03-19 20:53:00,
2013-03-19 16:58:00,28.4,27.4,29.69,East,85,2.3,2.3,96,0.00,OVC,,8.70,49.0,WeatherDisplay:10.37,2013-03-19 20:58:00,
2013-03-19 17:03:00,28.3,27.3,29.69,East,94,5.0,5.0,96,0.00,OVC,,8.70,53.0,WeatherDisplay:10.37,2013-03-19 21:03:00,
2013-03-19 17:08:00,28.2,27.2,29.69,ESE,112,6.0,6.0,96,0.00,OVC,,8.70,51.0,WeatherDisplay:10.37,2013-03-19 21:08:00,
2013-03-19 17:13:00,28.2,27.2,29.69,East,86,6.9,6.9,96,0.00,OVC,,8.70,47.0,WeatherDisplay:10.37,2013-03-19 21:13:00,
2013-03-19 17:18:00,28.1,27.1,29.68,ESE,105,4.6,4.6,96,0.00,OVC,,8.70,65.0,WeatherDisplay:10.37,2013-03-19 21:18:00,
2013-03-19 17:23:00,28.1,27.1,29.69,East,95,3.5,3.5,96,0.00,OVC,,8.70,54.0,WeatherDisplay:10.37,2013-03-19 21:23:00,
2013-03-19 17:28:00,28.1,27.1,29.69,ESE,109,3.5,3.5,96,0.00,OVC,,8.70,40.0,WeatherDisplay:10.37,2013-03-19 21:28:00,
2013-03-19 17:33:00,28.1,27.1,29.69,ENE,67,3.0,3.0,96,0.00,OVC,,8.70,37.0,WeatherDisplay:10.37,2013-03-19 21:33:00,
2013-03-19 17:38:00,28.1,27.1,29.69,ENE,67,1.0,0.0,96,0.00,OVC,,8.70,35.0,WeatherDisplay:10.37,2013-03-19 21:38:00,
2013-03-19 17:43:00,28.0,27.0,29.69,NE,49,4.6,4.6,96,0.00,OVC,,8.70,37.0,WeatherDisplay:10.37,2013-03-19 21:43:00,
2013-03-19 17:48:00,27.9,26.9,29.69,East,101,3.0,3.0,96,0.00,OVC,,8.70,32.0,WeatherDisplay:10.37,2013-03-19 21:48:00,
2013-03-19 17:53:00,27.9,26.9,29.70,East,91,5.0,5.0,96,0.00,OVC,,8.70,32.0,WeatherDisplay:10.37,2013-03-19 21:53:00,
2013-03-19 17:58:00,27.8,26.8,29.70,ESE,119,4.0,4.0,96,0.00,OVC,,8.70,26.0,WeatherDisplay:10.37,2013-03-19 21:58:00,
2013-03-19 18:03:00,27.8,26.6,29.69,SE,132,4.6,4.6,95,0.00,OVC,,8.70,44.0,WeatherDisplay:10.37,2013-03-19 22:03:00,
2013-03-19 18:08:00,27.7,26.5,29.69,East,100,8.1,8.1,95,0.00,OVC,,8.70,44.0,WeatherDisplay:10.37,2013-03-19 22:08:00,
2013-03-19 18:13:00,27.7,26.5,29.69,East,88,3.5,3.5,95,0.00,OVC,,8.70,42.0,WeatherDisplay:10.37,2013-03-19 22:13:00,
2013-03-19 18:18:00,27.7,26.7,29.69,East,80,5.0,5.0,96,0.00,OVC,,8.70,30.0,WeatherDisplay:10.37,2013-03-19 22:18:00,
2013-03-19 18:23:00,27.6,26.6,29.69,ESE,102,3.5,3.5,96,0.00,OVC,,8.70,19.0,WeatherDisplay:10.37,2013-03-19 22:23:00,
2013-03-19 18:28:00,27.5,26.5,29.69,ENE,61,3.5,3.5,96,0.00,OVC,,8.70,12.0,WeatherDisplay:10.37,2013-03-19 22:28:00,
2013-03-19 18:33:00,27.5,26.5,29.69,ENE,69,3.5,3.5,96,0.00,OVC,,8.70,5.0,WeatherDisplay:10.37,2013-03-19 22:33:00,
2013-03-19 18:38:00,27.4,26.4,29.69,East,82,2.3,2.3,96,0.00,OVC,,8.70,5.0,WeatherDisplay:10.37,2013-03-19 22:38:00,
2013-03-19 18:43:00,27.4,26.4,29.69,East,80,5.0,5.0,96,0.00,OVC,,8.70,5.0,WeatherDisplay:10.37,2013-03-19 22:43:00,
2013-03-19 18:48:00,27.2,26.2,29.69,ESE,103,5.0,5.0,96,0.00,OVC,,8.70,0.0,WeatherDisplay:10.37,2013-03-19 22:48:00,
2013-03-19 18:53:00,27.1,26.1,29.69,ESE,103,3.0,3.0,96,0.00,OVC,,8.70,0.0,WeatherDisplay:10.37,2013-03-19 22:53:00,
2013-03-19 18:58:00,27.1,26.1,29.69,East,90,4.0,4.0,96,0.00,OVC,,8.70,0.0,WeatherDisplay:10.37,2013-03-19 22:58:00,
2013-03-19 19:03:00,27.1,26.1,29.69,East,83,2.3,2.3,96,0.00,OVC,,8.70,0.0,WeatherDisplay:10.37,2013-03-19 23:03:00,
2013-03-19 19:08:00,27.1,26.1,29.69,East,88,3.5,3.5,96,0.00,OVC,,8.70,0.0,WeatherDisplay:10.37,2013-03-19 23:08:00,
2013-03-19 19:13:00,27.0,26.0,29.69,ESE,116,1.2,1.2,96,0.00,OVC,,8.70,0.0,WeatherDisplay:10.37,2013-03-19 23:13:00,
2013-03-19 19:18:00,27.0,26.0,29.69,ESE,117,1.2,0.0,96,0.00,OVC,,8.70,0.0,WeatherDisplay:10.37,2013-03-19 23:18:00,
2013-03-19 19:23:00,27.0,26.0,29.69,ESE,117,0.0,0.0,96,0.00,OVC,,8.70,0.0,WeatherDisplay:10.37,2013-03-19 23:23:00,
2013-03-19 19:28:00,27.0,26.0,29.69,ESE,117,1.0,1.0,96,0.00,OVC,,8.70,0.0,WeatherDisplay:10.37,2013-03-19 23:28:00,
2013-03-19 19:33:00,26.9,25.9,29.69,East,96,2.3,2.3,96,0.00,OVC,,8.70,0.0,WeatherDisplay:10.37,2013-03-19 23:33:00,
2013-03-19 19:38:00,26.9,25.9,29.69,East,84,4.6,4.6,96,0.00,OVC,,8.70,0.0,WeatherDisplay:10.37,2013-03-19 23:38:00,
2013-03-19 19:43:00,26.9,25.9,29.69,ESE,103,2.3,2.3,96,0.00,OVC,,8.70,0.0,WeatherDisplay:10.37,2013-03-19 23:43:00,
2013-03-19 19:48:00,26.7,25.7,29.69,East,86,6.0,6.0,96,0.00,OVC,,8.70,0.0,WeatherDisplay:10.37,2013-03-19 23:48:00,
2013-03-19 19:53:00,26.6,25.6,29.69,East,81,3.5,3.5,96,0.00,OVC,,8.70,0.0,WeatherDisplay:10.37,2013-03-19 23:53:00,
2013-03-19 19:58:00,26.5,25.5,29.69,East,93,3.5,3.5,96,0.00,OVC,,8.70,0.0,WeatherDisplay:10.37,2013-03-19 23:58:00,
2013-03-19 20:03:00,26.3,25.1,29.69,East,81,3.5,3.5,95,0.00,OVC,,8.70,0.0,WeatherDisplay:10.37,2013-03-20 00:03:00,
2013-03-19 20:08:00,26.2,25.2,29.69,East,80,2.0,2.0,96,0.00,OVC,,8.70,0.0,WeatherDisplay:10.37,2013-03-20 00:08:00,
2013-03-19 20:13:00,26.1,25.1,29.69,East,86,4.6,4.6,96,0.00,OVC,,8.70,0.0,WeatherDisplay:10.37,2013-03-20 00:13:00,
2013-03-19 20:19:00,26.1,25.1,29.70,East,86,0.0,0.0,96,0.00,OVC,,8.70,0.0,WeatherDisplay:10.37,2013-03-20 00:19:00,
2013-03-19 20:24:00,26.0,25.0,29.70,East,86,2.0,2.0,96,0.00,OVC,,8.70,0.0,WeatherDisplay:10.37,2013-03-20 00:24:00,
2013-03-19 20:29:00,26.0,25.0,29.70,East,86,2.3,2.3,96,0.00,OVC,,8.70,0.0,WeatherDisplay:10.37,2013-03-20 00:29:00,
2013-03-19 20:34:00,25.9,24.9,29.70,ESE,103,5.0,5.0,96,0.00,OVC,,8.70,0.0,WeatherDisplay:10.37,2013-03-20 00:34:00,
2013-03-19 20:39:00,25.8,24.8,29.70,ESE,107,2.3,2.3,96,0.00,OVC,,8.70,0.0,WeatherDisplay:10.37,2013-03-20 00:39:00,
2013-03-19 20:44:00,25.7,24.7,29.70,ENE,64,2.3,2.3,96,0.00,OVC,,8.70,0.0,WeatherDisplay:10.37,2013-03-20 00:44:00,
2013-03-19 20:49:00,25.7,24.7,29.70,ENE,58,1.2,1.2,96,0.00,OVC,,8.70,0.0,WeatherDisplay:10.37,2013-03-20 00:49:00,
2013-03-19 20:54:00,25.6,24.6,29.71,ENE,59,2.3,2.3,96,0.00,OVC,,8.70,0.0,WeatherDisplay:10.37,2013-03-20 00:54:00,
2013-03-19 20:59:00,25.5,24.5,29.71,ENE,59,0.0,0.0,96,0.00,OVC,,8.70,0.0,WeatherDisplay:10.37,2013-03-20 00:59:00,
2013-03-19 21:04:00,25.4,24.4,29.72,ENE,59,0.0,0.0,96,0.00,OVC,,8.70,0.0,WeatherDisplay:10.37,2013-03-20 01:04:00,
2013-03-19 21:09:00,25.4,24.4,29.72,ENE,59,1.2,1.2,96,0.00,OVC,,8.70,0.0,WeatherDisplay:10.37,2013-03-20 01:09:00,
2013-03-19 21:14:00,25.3,24.3,29.72,ENE,59,1.0,0.0,96,0.00,OVC,,8.70,0.0,WeatherDisplay:10.37,2013-03-20 01:14:00,
2013-03-19 21:20:00,25.2,24.2,29.72,ENE,59,0.0,0.0,96,0.00,OVC,,8.70,0.0,WeatherDisplay:10.37,2013-03-20 01:20:00,
2013-03-19 21:25:00,25.1,24.1,29.72,ENE,59,3.5,3.5,96,0.00,OVC,,8.70,0.0,WeatherDisplay:10.37,2013-03-20 01:25:00,
2013-03-19 21:30:00,25.0,24.0,29.72,ENE,59,0.0,0.0,96,0.00,OVC,,8.70,0.0,WeatherDisplay:10.37,2013-03-20 01:30:00,
2013-03-19 21:35:00,24.9,23.9,29.72,ENE,59,2.3,2.3,96,0.00,OVC,,8.70,0.0,WeatherDisplay:10.37,2013-03-20 01:35:00,
2013-03-19 21:40:00,24.8,23.8,29.72,ENE,59,2.3,2.3,96,0.00,OVC,,8.70,0.0,WeatherDisplay:10.37,2013-03-20 01:40:00,
2013-03-19 21:45:00,24.7,23.7,29.72,ENE,59,1.0,0.0,96,0.00,OVC,,8.70,0.0,WeatherDisplay:10.37,2013-03-20 01:45:00,
2013-03-19 21:50:00,24.7,23.5,29.72,ENE,59,1.2,1.2,95,0.00,OVC,,8.70,0.0,WeatherDisplay:10.37,2013-03-20 01:50:00,
2013-03-19 21:55:00,24.6,23.4,29.72,ENE,59,0.0,0.0,95,0.00,OVC,,8.70,0.0,WeatherDisplay:10.37,2013-03-20 01:55:00,
2013-03-19 22:00:00,24.5,23.3,29.72,ENE,59,0.0,0.0,95,0.00,OVC,,8.70,0.0,WeatherDisplay:10.37,2013-03-20 02:00:00,
2013-03-19 22:05:00,24.5,23.5,29.71,ENE,59,0.0,0.0,96,0.00,OVC,,8.70,0.0,WeatherDisplay:10.37,2013-03-20 02:05:00,
2013-03-19 22:10:00,24.4,23.4,29.71,ENE,59,0.0,0.0,96,0.00,OVC,,8.70,0.0,WeatherDisplay:10.37,2013-03-20 02:10:00,
2013-03-19 22:15:00,24.4,23.4,29.71,ENE,59,0.0,0.0,96,0.00,OVC,,8.70,0.0,WeatherDisplay:10.37,2013-03-20 02:15:00,
2013-03-19 22:20:00,24.4,23.4,29.71,ENE,59,0.0,0.0,96,0.00,OVC,,8.70,0.0,WeatherDisplay:10.37,2013-03-20 02:20:00,
2013-03-19 22:25:00,24.3,23.3,29.71,ENE,59,0.0,0.0,96,0.00,OVC,,8.70,0.0,WeatherDisplay:10.37,2013-03-20 02:25:00,
2013-03-19 22:30:00,24.3,23.3,29.71,ENE,59,0.0,0.0,96,0.00,OVC,,8.70,0.0,WeatherDisplay:10.37,2013-03-20 02:30:00,
2013-03-19 22:35:00,24.2,23.2,29.71,ENE,59,0.0,0.0,96,0.00,OVC,,8.70,0.0,WeatherDisplay:10.37,2013-03-20 02:35:00,
2013-03-19 22:40:00,24.2,23.2,29.71,ENE,59,0.0,0.0,96,0.00,OVC,,8.70,0.0,WeatherDisplay:10.37,2013-03-20 02:40:00,
2013-03-19 22:45:00,24.2,23.2,29.71,ENE,59,0.0,0.0,96,0.00,OVC,,8.70,0.0,WeatherDisplay:10.37,2013-03-20 02:45:00,
2013-03-19 22:50:00,24.1,23.1,29.71,ENE,59,0.0,0.0,96,0.00,OVC,,8.70,0.0,WeatherDisplay:10.37,2013-03-20 02:50:00,
2013-03-19 22:55:00,24.1,23.1,29.71,ENE,59,0.0,0.0,96,0.00,OVC,,8.70,0.0,WeatherDisplay:10.37,2013-03-20 02:55:00,
2013-03-19 23:00:00,24.0,23.0,29.71,ENE,59,0.0,0.0,96,0.00,OVC,,8.70,0.0,WeatherDisplay:10.37,2013-03-20 03:00:00,
2013-03-19 23:05:00,24.0,22.8,29.71,ENE,59,0.0,0.0,95,0.00,OVC,,8.70,0.0,WeatherDisplay:10.37,2013-03-20 03:05:00,
2013-03-19 23:10:00,24.0,23.0,29.71,ENE,59,0.0,0.0,96,0.00,OVC,,8.70,0.0,WeatherDisplay:10.37,2013-03-20 03:10:00,
2013-03-19 23:15:00,24.0,22.8,29.71,ENE,59,0.0,0.0,95,0.00,OVC,,8.70,0.0,WeatherDisplay:10.37,2013-03-20 03:15:00,
2013-03-19 23:20:00,24.0,23.0,29.71,ENE,59,0.0,0.0,96,0.00,OVC,,8.70,0.0,WeatherDisplay:10.37,2013-03-20 03:20:00,
2013-03-19 23:25:00,24.0,23.0,29.70,ENE,59,0.0,0.0,96,0.00,OVC,,8.70,0.0,WeatherDisplay:10.37,2013-03-20 03:25:00,
2013-03-19 23:30:00,23.9,22.7,29.70,ENE,59,0.0,0.0,95,0.00,OVC,,8.70,0.0,WeatherDisplay:10.37,2013-03-20 03:30:00,
2013-03-19 23:35:00,23.9,22.7,29.71,NW,312,3.5,3.5,95,0.00,OVC,,8.70,0.0,WeatherDisplay:10.37,2013-03-20 03:35:00,
2013-03-19 23:40:00,23.8,22.6,29.71,NW,315,2.3,2.3,95,0.00,OVC,,8.70,0.0,WeatherDisplay:10.37,2013-03-20 03:40:00,
2013-03-19 23:45:00,23.8,22.8,29.71,NNW,327,2.3,2.3,96,0.00,OVC,,8.70,0.0,WeatherDisplay:10.37,2013-03-20 03:45:00,
2013-03-19 23:50:00,23.7,22.7,29.71,NW,318,0.0,0.0,96,0.00,OVC,,8.70,0.0,WeatherDisplay:10.37,2013-03-20 03:50:00,
2013-03-19 23:55:00,23.7,22.7,29.71,NW,318,0.0,0.0,96,0.00,OVC,,8.70,0.0,WeatherDisplay:10.37,2013-03-20 03:55:00,